SCP
0 0 0 0 0 0 0 0 0 0 0 0 0 0 0 0 0 0 0 0 0 0 0 0 0 0 0 0 0 0 0 0 0 0 0 0 0 0 0 0 0 0 0
0 0 0 0 0 0 0 0 0 0 0 0 0 0 0 0 0 0 0 0 0 0 0 0 0 0 0 0 0 0 0 0 0 0 0 0 0 0 0 0 0 0 0
0 0 0 0 0 0 0 0 0 0 0 0 0 0 0 0 0 0 0 0 0 0 0 0 0 0 0 0 0 0 0 0 0 0 0 0 0 0 0 0 0 0 0
0 0 0 0 0 0 0 0 0 0 0 0 0 0 0 0 0 0 0 0 0 0 0 0 0 0 0 0 0 0 0 0 0 0 0 0 0 0 0 0 0 0 0
0 0 0 0 0 0 0 0 0 0 0 0 0 0 0 0 0 0 0 0 0 0 0 0 0 0 0 0 0 0 0 0 0 0 0 0 0 0 0 0 0 0 0
0 0 0 0 0 0 0 0 0 0 0 0 0 0 0 0 0 0 0 0 0 0 0 0 0 0 0 0 0 0 0 0 0 0 0 0 0 0 0 0 0 0 0
0 0 0 0 0 0 0 0 0 0 0 0 0 0 0 0 0 0 0 0 0 0 0 0 0 0 0 0 0 0 0 0 0 0 0 0 0 0 0 0 0 0 0
0 0 0 0 0 0 0 0 0 0 0 0 0 0 0 0 0 0 0 0 0 0 0 0 0 0 0 0 0 0 0 0 0 0 0 0 0 0 0 0 0 0 0
0 0 0 0 0 0 0 0 0 0 0 0 0 0 0 0 0 0 0 0 0 0 0 0 0 0 0 0 0 0 0 0 0 0 0 0 0 0 0 0 0 0 0
0 0 0 0 0 0 0 0 0 0 0 0 0 0 0 0 0 0 0 0 0 0 0 0 0 0 0 0 0 0 0 0 0 0 0 0 0 0 0 0 0 0 0
0 0 0 0 0 0 0 0 0 0 0 0 0 0 0 0 0 0 0 0 0 0 0 0 0 0 0 0 0 0 0 0 0 0 0 0 0 0 0 0 0 0 0
0 0 0 0 0 0 0 0 0 0 0 0 0 0 0 0 0 0 0 0 0 0 0 0 0 0 0 0 0 0 0 0 0 0 0 0 0 0 0 0 0 0 0
0 0 0 0 0 0 0 0 0 0 0 0 0 0 0 0 0 0 0 0 0 0 0 0 0 0 0 0 0 0 0 0 0 0 0 0 0 0 0 0 0 0 0
0 0 0 0 0 0 0 0 0 0 0 0 0 0 0 0 0 0 0 0 0 0 0 0 0 0 0 0 0 0 0 0 0 0 0 0 0 0 0 0 0 0 0
0 0 0 0 0 0 0 0 0 0 0 0 0 0 0 0 0 0 0 0 0 0 0 0 0 0 0 0 0 0 0 0 0 0 0 0 0 0 0 0 0 0 0
0 0 0 0 0 0 0 0 0 0 0 0 0 0 0 0 0 0 0 0 0 0 0 0 0 0 0 0 0 0 0 0 0 0 0 0 0 0 0 0 0 0 0
0 0 0 0 0 0 0 0 0 0 0 0 0 0 0 0 0 0 0 0 0 0 0 0 0 0 0 0 0 0 0 0 0 0 0 0 0 0 0 0 0 0 0
0 0 0 0 0 0 0 0 0 0 0 0 0 0 0 0 0 0 0 0 0 0 0 0 0 0 0 0 0 0 0 0 0 0 0 0 0 0 0 0 0 0 0
0 0 0 0 0 0 0 0 0 0 0 0 0 0 0 0 0 0 0 0 0 0 0 0 0 0 0 0 0 0 0 0 0 0 0 0 0 0 0 0 0 0 0
0 0 0 0 0 0 0 0 0 0 0 0 0 0 0 0 0 0 0 0 0 0 0 0 0 0 0 0 0 0 0 0 0 0 0 0 0 0 0 0 0 0 0
0 0 0 0 0 0 0 0 0 0 0 0 0 0 0 0 0 0 0 0 0 0 0 0 0 0 0 0 0 0 0 0 0 0 0 0 0 0 0 0 0 0 0
0 0 0 0 0 0 0 0 0 0 0 0 0 0 0 0 0 0 0 0 0 0 0 0 0 0 0 0 0 0 0 0 0 0 0 0 0 0 0 0 0 0 0
0 0 0 0 0 0 0 0 0 0 0 0 0 0 0 0 0 0 0 0 0 0 0 0 0 0 0 0 0 0 0 0 0 0 0 0 0 0 0 0 0 0 0
0 0 0 0 0 0 0 0 0 0 0 0 0 0 0 0 0 0 0 0 0 0 0 0 0 0 0 0 0 0 0 0 0 0 0 0 0 0 0 0 0 0 0
0 0 0 0 0 0 0 0 0 0 0 0 0 0 0 0 0 0 0 0 0 0 0 0 0 0 0 0 0 0 0 0 0 0 0 0 0 0 0 0 0 0 0
0 0 0 0 0 0 0 0 0 0 0 0 0 0 0 0 0 0 0 0 0 0 0 0 0 0 0 0 0 0 0 0 0 0 0 0 0 0 0 0 0 0 0
Wind_Speed
2 2 2 1 1 2 2 2 1 2 2 2 2 3 2 2 1 1 1 1 1 1 1 1 2 1 2 2 2 2 3 3 6 5 3 3 3 4 4 4 4 4 4
2 2 2 2 2 2 2 2 2 2 2 2 3 3 3 3 2 1 1 1 1 0 0 1 1 1 2 2 2 2 3 2 4 7 5 3 4 4 4 4 4 4 4
2 3 3 2 3 3 3 3 3 3 3 3 3 3 3 3 2 2 1 1 1 1 1 1 2 2 2 2 2 3 3 3 3 4 6 4 3 4 5 5 5 4 5
2 3 3 2 3 3 3 3 3 3 3 3 3 3 3 3 3 2 2 2 2 2 2 2 2 2 2 3 2 3 3 3 3 4 5 4 3 3 3 4 6 5 6
3 3 3 3 3 3 3 3 3 3 4 3 4 4 3 3 3 3 2 3 2 2 2 2 3 3 4 3 2 3 3 3 3 3 4 4 4 4 4 4 6 6 6
3 3 3 3 3 3 3 3 4 3 3 4 4 4 4 3 6 6 4 3 2 2 2 2 3 3 4 5 5 4 4 3 4 4 4 5 6 5 5 4 5 6 6
3 3 3 3 3 3 3 4 4 3 4 4 4 4 4 6 8 7 6 3 3 2 2 2 3 3 4 4 5 5 5 6 5 4 5 6 6 5 6 6 5 6 7
4 3 3 3 3 3 3 3 3 3 3 4 4 4 4 5 8 8 7 4 3 3 3 3 3 3 4 5 4 4 4 4 5 4 5 6 5 5 5 6 7 7 7
3 2 2 2 3 3 3 3 3 3 4 4 4 4 4 5 7 7 7 3 3 4 4 4 4 4 7 7 5 4 4 4 6 7 8 8 9 9 7 4 4 5 6
2 2 2 2 3 3 2 3 3 3 4 4 4 4 4 4 6 7 6 3 3 3 3 3 5 6 7 7 4 4 5 5 5 6 6 7 6 7 8 4 4 4 5
2 3 3 3 3 3 3 3 3 4 4 4 4 4 4 4 5 7 6 3 2 2 2 2 3 6 7 7 5 4 5 6 4 4 5 4 4 4 5 5 4 4 5
3 3 3 3 3 3 3 3 3 4 4 3 3 3 3 3 4 5 6 5 4 2 2 2 3 6 6 7 5 6 7 5 3 3 4 4 4 5 5 6 6 5 5
3 3 3 3 3 3 3 4 3 3 3 2 2 2 2 2 3 5 5 5 6 3 2 4 5 6 5 5 7 8 6 4 3 3 4 4 5 5 6 5 6 6 6
3 3 3 3 3 3 2 2 2 2 2 2 2 2 1 1 1 2 2 2 4 3 3 3 5 5 5 6 5 6 4 4 3 3 4 4 5 5 5 5 6 6 6
3 3 3 3 3 2 2 2 2 1 2 3 2 2 2 1 1 3 2 1 1 2 2 2 2 3 3 4 4 4 4 4 4 4 4 4 5 5 5 5 5 5 5
3 3 2 2 2 2 2 3 5 4 5 5 5 4 2 2 3 3 3 3 4 5 3 1 2 2 3 3 4 4 4 4 5 4 4 4 5 5 6 5 5 5 6
3 3 2 2 2 2 2 3 3 4 6 6 6 5 4 4 4 3 3 4 5 6 3 2 2 2 2 2 3 3 4 4 4 4 4 5 5 5 5 6 6 6 6
2 3 2 2 2 2 2 2 2 2 2 2 3 5 5 4 4 4 4 5 3 4 2 1 1 2 2 2 2 3 3 4 4 4 4 4 4 5 5 6 6 6 7
2 2 2 2 2 2 2 2 2 2 2 2 2 3 4 4 5 6 5 3 2 1 1 1 1 2 2 2 2 2 3 3 3 4 4 4 4 4 5 6 6 7 7
2 3 3 2 2 2 2 2 2 2 2 2 1 1 2 2 2 3 3 2 1 1 1 1 1 1 1 2 2 2 2 3 3 3 4 4 4 4 5 6 6 6 6
2 2 3 3 2 2 2 2 2 2 1 1 1 0 2 1 1 1 1 1 1 0 1 1 1 1 1 1 2 2 3 3 3 3 3 4 4 4 5 5 6 6 6
2 2 2 2 2 2 2 1 2 2 1 1 0 1 2 2 1 0 1 1 1 1 1 1 1 1 2 2 2 2 3 3 3 3 3 4 4 5 5 5 6 6 6
3 3 3 2 2 2 2 1 1 1 1 1 1 0 0 0 0 0 1 1 1 1 1 1 1 2 2 2 2 2 3 3 3 3 4 4 4 4 5 6 7 7 7
3 3 3 2 2 1 1 1 1 1 1 1 1 1 1 1 1 1 1 1 1 1 1 1 2 3 4 3 3 3 3 4 4 3 4 5 5 5 5 5 6 7 7
2 3 2 2 2 2 1 1 1 1 1 1 1 1 1 1 1 2 2 1 2 2 3 3 2 3 4 5 5 5 6 8 6 4 4 4 5 5 5 6 6 7 7
2 2 2 2 2 2 2 2 2 2 2 2 2 2 2 2 2 2 2 2 2 2 3 3 3 4 5 5 6 8 8 9 8 7 5 4 4 5 5 5 6 6 6
Wind_Direction
121 117 113 104 95 101 105 99 99 92 99 111 117 119 119 116 117 145 164 149 181 217 248 253 272 292 290 300 294 289 283 274 272 285 301 316 319 319 321 319 316 315 312
101 103 101 98 100 101 98 92 93 97 92 94 97 100 96 89 86 106 126 128 145 149 354 350 325 342 328 319 315 311 305 305 285 288 300 315 315 317 321 321 319 315 306
91 98 93 91 93 95 90 82 83 90 87 83 87 94 94 91 86 85 107 101 90 67 43 24 7 15 350 344 339 329 320 319 302 290 296 307 312 331 327 322 318 310 313
100 96 93 85 85 85 82 81 80 85 88 84 81 81 79 78 78 72 74 80 77 66 53 42 29 22 356 341 333 329 326 319 312 299 299 308 311 321 326 319 318 316 311
110 102 94 84 82 82 82 82 82 82 84 86 86 79 71 67 64 65 71 76 71 64 54 44 41 36 20 359 344 332 328 317 314 307 303 309 313 328 324 322 310 312 305
115 110 99 93 91 87 86 88 88 85 85 87 87 84 72 62 61 62 65 71 70 62 49 33 34 28 15 9 4 355 346 322 312 306 300 304 310 317 317 314 309 314 305
110 103 98 99 96 90 91 91 93 92 88 85 76 76 70 60 61 59 57 59 60 54 45 33 25 22 10 360 358 353 345 341 328 311 303 306 311 314 314 310 305 297 289
110 107 104 106 106 99 97 95 91 89 91 88 82 79 73 61 62 60 59 59 57 48 40 34 26 17 14 4 354 350 345 344 337 323 307 307 312 313 304 296 294 295 290
105 105 101 112 113 109 107 103 98 97 90 85 85 80 76 62 59 59 60 60 56 42 33 29 23 19 14 12 5 349 341 340 344 336 327 324 326 326 328 321 313 309 302
108 100 91 102 113 114 113 108 98 101 99 93 84 75 73 62 55 54 54 60 56 41 32 29 24 19 14 16 10 351 337 336 340 338 336 334 331 332 337 326 309 301 302
91 91 91 93 100 106 103 96 97 98 98 96 93 79 67 57 53 53 49 47 46 32 19 14 8 9 11 13 11 354 342 340 332 331 328 330 336 340 339 334 322 304 296
90 93 90 88 94 102 106 97 98 108 108 104 99 85 62 52 52 50 48 45 41 40 15 1 356 1 6 10 7 2 359 355 342 337 336 338 340 337 332 327 321 313 299
96 98 97 92 94 101 113 115 113 112 116 114 109 104 79 55 46 47 46 45 44 44 24 6 1 5 10 12 12 12 7 358 349 343 338 334 333 328 328 326 323 320 312
112 109 106 107 100 95 105 116 127 133 131 128 127 118 96 74 46 39 42 43 46 44 34 19 20 24 28 24 16 14 9 360 351 342 333 330 331 334 335 333 329 329 325
114 110 110 111 114 105 94 96 108 101 126 136 140 137 138 146 20 37 48 38 40 41 50 34 25 19 22 15 10 5 1 1 359 350 343 338 337 337 334 334 329 328 321
117 115 117 116 110 104 101 84 76 87 92 97 98 99 95 86 80 69 53 53 59 67 75 55 29 20 16 7 358 352 354 356 352 346 344 340 335 332 330 330 331 327 321
124 123 120 116 114 112 108 114 104 77 77 86 87 83 76 79 82 74 65 72 68 72 72 55 31 11 2 358 353 344 339 341 341 342 341 337 333 330 328 327 328 327 321
106 107 110 113 110 109 110 111 117 119 99 59 65 73 69 64 65 65 70 78 63 55 56 49 17 0 354 351 346 339 337 339 341 338 335 333 331 327 325 323 321 321 318
107 105 98 96 95 95 91 89 92 96 97 82 56 50 52 56 58 52 57 68 84 56 37 27 11 358 349 342 333 332 330 327 327 329 327 326 326 324 319 316 316 318 318
99 99 98 104 101 95 89 92 96 98 97 91 76 29 32 50 44 24 27 44 58 41 15 359 347 340 335 329 324 323 324 322 324 323 321 322 322 319 314 313 315 316 315
110 106 98 97 102 105 107 108 107 105 105 101 98 333 55 73 68 25 8 13 17 346 329 317 311 311 311 312 312 311 311 311 313 315 317 318 318 316 313 311 310 312 312
118 119 113 110 106 103 105 106 111 116 120 119 83 4 39 59 56 11 345 333 316 290 268 266 279 284 289 295 297 300 300 301 305 310 311 311 311 313 313 312 313 315 315
116 112 106 103 103 105 101 107 117 130 140 156 166 127 36 120 255 281 291 297 302 302 300 286 281 288 293 291 283 277 281 285 288 292 299 302 305 308 307 306 308 311 313
122 123 121 119 117 124 131 131 137 146 155 175 194 217 233 237 245 260 267 273 284 290 291 288 276 278 288 296 293 286 278 279 282 279 278 283 291 295 297 300 302 304 307
132 133 135 143 152 160 162 166 174 185 194 207 216 230 239 241 250 261 269 271 275 278 282 280 274 279 286 290 290 287 289 291 286 276 272 272 279 284 289 293 298 304 307
140 142 150 161 172 180 185 193 202 209 214 219 222 228 234 241 249 255 260 262 269 274 278 278 276 281 286 288 288 291 290 288 283 273 267 269 276 284 289 292 296 299 304